Weather History for Fort Benning, GA

Change the Weather History Date:

Tuesday, July 2, 2013

  Actual Average Record
Temperature  
Mean Temperature 78 °F -  
Max Temperature 90 °F 88 °F 98 °F (1996)
Min Temperature 69 °F 67 °F 55 °F (2008)
Cooling Degree Days 14    
Growing Degree Days 28 (Base 50)    
Moisture  
Dew Point 72 °F    
Average Humidity 90    
Maximum Humidity 100    
Minimum Humidity 51    
Precipitation  
Precipitation 0.00 in - - ()
Sea Level Pressure  
Sea Level Pressure 29.96 in    
Wind  
Wind Speed 3 mph (SSE)    
Max Wind Speed 10 mph    
Max Gust Speed -    
Visibility 7 miles    
Events Fog    
Averages and records for this station are not official NWS values.
T = Trace of Precipitation, MM = Missing Value Source: NWS Daily Summary

Daily Weather History Graph

Daily Weather History Graph

Search for Another Location

Airport:

Trip Planner

Search our weather history database for the weather conditions in past years. The results will help you decide how hot, cold, wet, or windy it might be!

Date:

Astronomy

Jul. 02, 2013 Rise Set
Actual Time 6:37 AM EDT 8:50 PM EDT
Civil Twilight 6:08 AM EDT 9:19 PM EDT
Nautical Twilight 5:34 AM EDT 9:53 PM EDT
Astronomical Twilight 4:56 AM EDT 10:30 PM EDT
Moon 2:29 AM EDT (7/2) 4:11 PM EDT (7/2)
Length of Visible Light 15h 10m
Length of Day
14h 13m
Waning Crescent, 26% of the Moon is Illuminated
Jul 2
Waning Crescent
Jul 8
New
Jul 15
First Quarter
Jul 22
Full
Jul 29
Last Quarter

Hourly Weather History & Observations

Time (EDT) Temp. Heat Index Dew Point Humidity Pressure Visibility Wind Dir Wind Speed Gust Speed Precip Events Conditions
12:58 AM 70.5 °F - 70.3 °F 99% 29.91 in 10.0 mi SE 4.6 mph - N/A   Partly Cloudy
1:37 AM 69.8 °F - 69.8 °F 100% 29.91 in 9.0 mi SE 2.3 mph - N/A   Partly Cloudy
1:47 AM 69.8 °F - 69.8 °F 100% 29.91 in 9.0 mi SE 1.2 mph - N/A   Mostly Cloudy
1:58 AM 70.5 °F - 70.3 °F 99% 29.92 in 10.0 mi Calm Calm - N/A   Mostly Cloudy
2:03 AM 69.8 °F - 69.8 °F 100% 29.92 in 5.0 mi Calm Calm - N/A   Overcast
2:08 AM 69.8 °F - 69.8 °F 100% 29.92 in 4.0 mi WNW 1.2 mph - N/A   Overcast
2:13 AM 69.8 °F - 69.8 °F 100% 29.92 in 6.0 mi Calm Calm - N/A   Overcast
2:53 AM 69.8 °F - 69.8 °F 100% 29.92 in 7.0 mi Calm Calm - N/A   Mostly Cloudy
2:58 AM 70.3 °F - 70.0 °F 99% 29.93 in 8.0 mi Calm Calm - N/A   Overcast
3:13 AM 71.6 °F - 71.6 °F 100% 29.91 in 10.0 mi SSE 2.3 mph - N/A   Overcast
3:18 AM 71.6 °F - 71.6 °F 100% 29.91 in 9.0 mi SSE 2.3 mph - N/A   Overcast
3:28 AM 71.6 °F - 71.6 °F 100% 29.91 in 8.0 mi ESE 3.5 mph - N/A   Overcast
3:38 AM 71.6 °F - 71.6 °F 100% 29.92 in 10.0 mi Calm Calm - N/A   Overcast
3:58 AM 71.4 °F - 71.2 °F 99% 29.92 in 10.0 mi Calm Calm - N/A   Overcast
4:04 AM 71.6 °F - 71.6 °F 100% 29.92 in 10.0 mi South 5.8 mph - N/A   Overcast
4:19 AM 71.6 °F - 71.6 °F 100% 29.92 in 10.0 mi SSE 6.9 mph - N/A   Overcast
4:29 AM 71.6 °F - 71.6 °F 100% 29.91 in 10.0 mi SSE 6.9 mph - N/A   Overcast
4:44 AM 71.6 °F - 71.6 °F 100% 29.92 in 8.0 mi SSE 5.8 mph - N/A   Overcast
4:54 AM 71.6 °F - 71.6 °F 100% 29.92 in 9.0 mi SSE 4.6 mph - N/A   Overcast
4:55 AM 71.6 °F - 71.6 °F 100% 29.92 in 9.0 mi SSE 4.6 mph - N/A   Overcast
4:58 AM 72.1 °F - 71.8 °F 99% 29.93 in 9.0 mi SSE 3.5 mph - N/A   Overcast
5:18 AM 73.4 °F - 71.6 °F 94% 29.93 in 7.0 mi SSE 4.6 mph - N/A   Overcast
5:28 AM 73.4 °F - 71.6 °F 94% 29.93 in 5.0 mi SSE 3.5 mph - N/A   Overcast
5:33 AM 73.4 °F - 71.6 °F 94% 29.93 in 5.0 mi SE 2.3 mph - N/A   Overcast
5:48 AM 73.4 °F - 71.6 °F 94% 29.93 in 5.0 mi SSE 5.8 mph - N/A   Overcast
5:58 AM 72.7 °F - 72.3 °F 99% 29.94 in 5.0 mi SSE 5.8 mph - N/A   Overcast
6:23 AM 71.6 °F - 71.6 °F 100% 29.94 in 2.5 mi SE 5.8 mph - N/A   Overcast
6:33 AM 71.6 °F - 71.6 °F 100% 29.94 in 1.8 mi SSE 4.6 mph - N/A   Overcast
6:38 AM 71.6 °F - 71.6 °F 100% 29.95 in 1.8 mi SSE 5.8 mph - N/A   Overcast
6:43 AM 71.6 °F - 71.6 °F 100% 29.95 in 1.2 mi SSE 4.6 mph - N/A   Overcast
6:48 AM 71.6 °F - 71.6 °F 100% 29.95 in 0.8 mi SSE 4.6 mph - N/A   Mist
6:53 AM 71.6 °F - 71.6 °F 100% 29.95 in 0.8 mi SSE 4.6 mph - N/A   Mist
6:58 AM 72.1 °F - 71.8 °F 99% 29.96 in 0.5 mi SSE 3.5 mph - N/A Fog Fog
7:08 AM 71.6 °F - 71.6 °F 100% 29.96 in 0.5 mi SSE 3.5 mph - N/A Fog Fog
7:13 AM 71.6 °F - 71.6 °F 100% 29.96 in 0.5 mi SSE 2.3 mph - N/A Fog Fog
7:28 AM 71.6 °F - 71.6 °F 100% 29.96 in 1.0 mi Calm Calm - N/A   Mist
7:33 AM 71.6 °F - 71.6 °F 100% 29.96 in 1.0 mi Calm Calm - N/A   Mist
7:38 AM 73.4 °F - 71.6 °F 94% 29.97 in 1.0 mi NNE 1.2 mph - N/A   Mist
7:42 AM 73.4 °F - 71.6 °F 94% 29.97 in 1.2 mi SE 2.3 mph - N/A   Mostly Cloudy
7:43 AM 73.4 °F - 71.6 °F 94% 29.97 in 1.5 mi Calm Calm - N/A   Overcast
7:53 AM 73.4 °F - 73.4 °F 100% 29.97 in 1.2 mi Calm Calm - N/A   Overcast
7:58 AM 72.9 °F - 72.7 °F 99% 29.98 in 1.5 mi Calm Calm - N/A   Overcast
8:03 AM 73.4 °F - 73.4 °F 100% 29.97 in 2.0 mi Calm Calm - N/A   Overcast
8:08 AM 73.4 °F - 73.4 °F 100% 29.97 in 3.0 mi Calm Calm - N/A   Overcast
8:23 AM 75.2 °F - 73.4 °F 94% 29.98 in 9.0 mi NW 1.2 mph - N/A   Overcast
8:28 AM 75.2 °F - 73.4 °F 94% 29.98 in 10.0 mi South 3.5 mph - N/A   Overcast
8:38 AM 75.2 °F - 73.4 °F 94% 29.98 in 10.0 mi SSW 3.5 mph - N/A   Overcast
8:43 AM 75.2 °F - 73.4 °F 94% 29.98 in 10.0 mi South 3.5 mph - N/A   Overcast
8:56 AM 77.0 °F - 73.4 °F 89% 29.99 in 10.0 mi Variable 4.6 mph - N/A   Overcast
8:58 AM 77.0 °F - 73.4 °F 89% 29.99 in 10.0 mi South 4.6 mph - N/A   Overcast
9:03 AM 77.0 °F - 73.4 °F 89% 29.99 in 10.0 mi South 4.6 mph - N/A   Overcast
9:13 AM 77.0 °F - 73.4 °F 89% 29.99 in 10.0 mi SSE 4.6 mph - N/A   Overcast
9:34 AM 78.8 °F - 73.4 °F 83% 29.99 in 10.0 mi SSE 8.1 mph - N/A   Mostly Cloudy
9:55 AM 78.8 °F - 73.4 °F 83% 29.99 in 10.0 mi SSE 9.2 mph - N/A   Mostly Cloudy
10:33 AM 80.6 °F 85.4 °F 73.4 °F 79% 29.99 in 10.0 mi SSE 6.9 mph - N/A   Mostly Cloudy
10:48 AM 82.4 °F 87.2 °F 71.6 °F 70% 29.99 in 10.0 mi SSE 10.4 mph - N/A   Scattered Clouds
10:58 AM 81.9 °F 86.8 °F 72.3 °F 73% 29.99 in 10.0 mi SE 10.4 mph - N/A   Scattered Clouds
11:55 AM 83.3 °F 88.4 °F 71.8 °F 68% 29.99 in 10.0 mi SSE 9.2 mph - N/A   Scattered Clouds
12:58 PM 85.8 °F 90.4 °F 70.2 °F 59% 29.99 in 10.0 mi SSE 8.1 mph - N/A   Clear
1:46 PM 86.0 °F 90.4 °F 69.8 °F 58% 29.98 in 10.0 mi SSE 8.1 mph - N/A   Mostly Cloudy
1:51 PM 86.0 °F 90.4 °F 69.8 °F 58% 29.98 in 10.0 mi South 6.9 mph - N/A   Mostly Cloudy
1:58 PM 87.3 °F 91.6 °F 69.4 °F 55% 29.99 in 10.0 mi South 5.8 mph - N/A   Mostly Cloudy
2:58 PM 88.3 °F 92.8 °F 69.4 °F 53% 29.97 in 10.0 mi South 6.9 mph - N/A   Clear
3:58 PM 88.9 °F 93.0 °F 68.9 °F 51% 29.96 in 10.0 mi SSW 6.9 mph - N/A   Clear
4:58 PM 88.3 °F 92.0 °F 68.2 °F 51% 29.96 in 10.0 mi South 9.2 mph - N/A   Partly Cloudy
5:58 PM 88.2 °F 95.0 °F 72.0 °F 59% 29.96 in 10.0 mi WNW 5.8 mph - N/A   Partly Cloudy
6:58 PM 87.4 °F 92.3 °F 70.0 °F 56% 29.96 in 10.0 mi Calm Calm - N/A   Clear
7:58 PM 82.6 °F 88.6 °F 73.4 °F 74% 29.99 in 10.0 mi SSE 10.4 mph - N/A   Scattered Clouds
8:58 PM 79.0 °F - 72.0 °F 79% 30.01 in 10.0 mi SE 5.8 mph - N/A   Clear
9:58 PM 76.6 °F - 72.5 °F 87% 30.02 in 10.0 mi SE 5.8 mph - N/A   Clear
10:58 PM 74.5 °F - 72.5 °F 94% 30.05 in 10.0 mi SE 4.6 mph - N/A   Clear
11:43 PM 75.2 °F - 73.4 °F 94% 30.05 in 10.0 mi SE 4.6 mph - N/A   Mostly Cloudy
11:48 PM 75.2 °F - 73.4 °F 94% 30.05 in 10.0 mi SE 4.6 mph - N/A   Mostly Cloudy
11:58 PM 74.7 °F - 73.2 °F 95% 30.05 in 10.0 mi SE 4.6 mph - N/A   Mostly Cloudy